[[{"header":{"parameterUnit":"m.s-1","parameterCategory":2,"la1":30.2991,"la2":30.254,"lo1":-89.0895,"lo2":-89.0444,"dy":0.0017,"dx":0.0017,"nx":28,"ny":28,"refTime":"2024-12-04T03:00:00:Z","depth":"0","parameterNumber":2,"parameterNumberName":"U-component_of_CURRENTS"},"data":[0,0,0,0,0,0,0,0,0,0,0,0,0,0,0,0,0,0,0,0,0,0,0,0,0,0,0,0,0,0,0,0,0,0,0,0,0,0,0,0,0,0,0,0,0,0,0,0,0,0,0,0,0,0,0,0,0,0,0.3018,0.3018,0,0.3066,0.3067,0.3067,0.3073,0.3073,0.3072,0.3072,0.3085,0.3086,0.3086,0,0,0,0,0,0,0,0,0,0,0,0,0,0.2912,0.2914,0.3017,0.3018,0.3019,0.3066,0.3067,0.3067,0.3073,0.3073,0.3072,0.3072,0.3085,0.3086,0.3086,0,0,0,0,0,0,0,0,0,0,0,0,0,0.2957,0.2915,0.3017,0.3029,0.3031,0.3066,0.3067,0.3068,0.3073,0.3073,0.3072,0.3072,0.3085,0.3085,0.3086,0.3102,0,0,0.3089,0.309,0,0,0,0,0,0,0,0,0.2955,0.2961,0.3026,0.3028,0.303,0.3065,0.3035,0.3078,0.3073,0.3055,0.3072,0.3071,0.3076,0.3078,0.3086,0.3102,0.3103,0.3089,0.309,0.309,0.3091,0,0,0,0,0,0,0,0.2952,0.2959,0.3035,0.3027,0.303,0.3026,0.3032,0.3043,0.3066,0.3057,0.3058,0.3066,0.3077,0.3085,0.3086,0.3103,0.3089,0.309,0.3091,0.3091,0.3164,0.3166,0,0,0,0,0,0,0.2951,0.2956,0.3033,0.3037,0.2993,0.3029,0.3035,0.3053,0.3066,0.3069,0.3066,0.3066,0.3084,0.3085,0.3087,0.3136,0.309,0.3091,0.3092,0.3163,0.3165,0.3166,0,0,0,0,0,0,0.2949,0.2958,0.3032,0.2998,0.3008,0.3031,0.3051,0.3054,0.3066,0.3075,0.3076,0.3075,0.3084,0.3086,0.3107,0.3135,0.3092,0.3093,0.3161,0.3164,0.3165,0.3214,0,0,0,0,0,0,0.2946,0.2957,0.2967,0.2999,0.301,0.3063,0.3051,0.3055,0.3072,0.3072,0.3083,0.3083,0.3083,0.3106,0.3108,0.3135,0.3093,0.316,0.3162,0.3165,0.321,0.3217,0.3223,0,0,0,0,0,0.2942,0.2958,0.2968,0.2977,0.3024,0.3064,0.3069,0.3082,0.3073,0.3088,0.3094,0.3083,0.3124,0.3108,0.311,0.3138,0.3158,0.3162,0.3165,0.3207,0.3216,0.3223,0,0,0,0,0,0,0.2909,0.2961,0.2972,0.3001,0.3035,0.3066,0.3077,0.3086,0.3102,0.31,0.3098,0.3101,0.3132,0.3128,0.311,0.3168,0.3141,0.3144,0.3172,0.318,0.3186,0.3196,0.3094,0,0,0,0,0,0.291,0.2938,0.2985,0.3005,0.3025,0.3051,0.3067,0.3082,0.3102,0.3108,0.3114,0.3125,0.3148,0.3157,0.3172,0.32,0.3217,0.3221,0.3227,0.3232,0.3243,0.3295,0.3307,0.3176,0.3176,0.3176,0,0,0.2899,0.2933,0.2946,0.3001,0.3024,0.3062,0.3059,0.3091,0.312,0.3107,0.3136,0.3147,0.316,0.3197,0.321,0.3195,0.3281,0.3236,0.324,0.3248,0.33,0.3312,0.3324,0.3178,0.3178,0.3178,0,0,0.2896,0.2927,0.2954,0.2992,0.3042,0.3067,0.3078,0.3118,0.3134,0.3168,0.317,0.3199,0.322,0.3245,0.3258,0.3308,0.3313,0.331,0.335,0.3401,0.3412,0.3422,0.3469,0.3483,0.3312,0.3312,0.3313,0,0.2879,0.2924,0.2964,0.3006,0.3034,0.307,0.3104,0.3136,0.3175,0.3196,0.3182,0.3243,0.3248,0.3309,0.3327,0.3324,0.3351,0.3318,0.3409,0.342,0.3429,0.3475,0.3489,0.3315,0.3315,0.3315,0.3314,0,0.2905,0.2943,0.2962,0.3029,0.3067,0.3102,0.3158,0.3192,0.3209,0.324,0.3297,0.3314,0.3352,0.3361,0.3358,0.3433,0.3431,0.3412,0.339,0.3446,0.349,0.3504,0.3319,0.3318,0.3317,0.3317,0,0,0.2857,0.2958,0.2964,0.3004,0.3083,0.3119,0.3176,0.3241,0.3283,0.3322,0.3378,0.342,0.3433,0.345,0.3458,0.3499,0.3587,0.3486,0.3488,0.3532,0.3707,0.3643,0.3653,0.3586,0.3589,0.3591,0.3713,0,0.286,0.2932,0.2984,0.3052,0.3095,0.3157,0.3208,0.3275,0.3323,0.3389,0.3433,0.3486,0.3468,0.3492,0.3536,0.358,0.3627,0.3556,0.3646,0.3649,0.3586,0.3668,0.3552,0.3646,0.3727,0.3729,0.3731,0,0.2864,0.2918,0.2976,0.3077,0.31,0.3147,0.3242,0.3297,0.3402,0.344,0.3509,0.3546,0.3632,0.3595,0.3711,0.3669,0.3694,0.3718,0.3723,0.3657,0.3613,0.3602,0.3669,0.3611,0.3753,0.3751,0.375,0,0.2811,0.2912,0.2954,0.299,0.3105,0.3145,0.3207,0.3308,0.3359,0.3482,0.3535,0.3632,0.369,0.3749,0.3797,0.3767,0.3915,0.3876,0.3846,0.3842,0.3757,0.3741,0.3776,0.3955,0.3955,0.3955,0.3954,0,0.2793,0.2834,0.2938,0.2968,0.3018,0.3123,0.3183,0.3263,0.3384,0.3441,0.3558,0.3622,0.3731,0.3818,0.3847,0.3902,0.3959,0.3879,0.3878,0.377,0.3754,0.3707,0.3672,0.3959,0.3958,0.3957,0.3957,0,0.2725,0.2794,0.2847,0.2961,0.2991,0.3029,0.3146,0.3203,0.3335,0.342,0.3464,0.3644,0.3758,0.3854,0.3964,0.3959,0.3918,0.4011,0.3876,0.3856,0.3739,0.3709,0.3609,0.3488,0.4007,0.4006,0.4006,0,0.2692,0.2715,0.2804,0.2821,0.2869,0.294,0.2985,0.3139,0.3205,0.3406,0.3448,0.3619,0.3702,0.3881,0.3926,0.4001,0.3885,0.3911,0.3819,0.3739,0.3709,0.3562,0.3456,0.3739,0.3736,0.3734,0.3732,0,0.2621,0.2648,0.2687,0.272,0.2766,0.2804,0.2897,0.2941,0.3116,0.3213,0.3348,0.3448,0.3655,0.3707,0.3833,0.3852,0.3735,0.3864,0.3827,0.3545,0.3344,0.3224,0.3655,0.3712,0.3714,0.3716,0.3717,0.3718,0.2544,0.254,0.2583,0.2605,0.2642,0.266,0.2658,0.2774,0.2852,0.2978,0.3156,0.3274,0.3484,0.3658,0.3659,0.3639,0.3588,0.3555,0.3546,0.3419,0.3231,0.3612,0.3629,0.363,0.3632,0.3633,0.3634,0,0.2438,0.2452,0.247,0.2486,0.2475,0.2533,0.2583,0.2571,0.2605,0.2782,0.2885,0.3096,0.3214,0.3369,0.3474,0.3373,0.3204,0.3284,0.3076,0.2998,0.3403,0.3321,0.3215,0.3215,0.3215,0.3215,0.3215,0.3215,0.2384,0.2364,0.2377,0.2315,0.2319,0.2261,0.2252,0.226,0.235,0.245,0.258,0.2745,0.3107,0.334,0.3317,0.3225,0.297,0.2839,0.2805,0.3146,0.317,0.3193,0.3109,0.2961,0.2961,0.2275,0.227,0.2267]},{"header":{"parameterUnit":"m.s-1","parameterCategory":2,"la1":30.2991,"la2":30.254,"lo1":-89.0895,"lo2":-89.0444,"dy":0.0017,"dx":0.0017,"nx":28,"ny":28,"refTime":"2024-12-04T03:00:00:Z","depth":"0","parameterNumber":3,"parameterNumberName":"V-component_of_CURRENTS"},"data":[0,0,0,0,0,0,0,0,0,0,0,0,0,0,0,0,0,0,0,0,0,0,0,0,0,0,0,0,0,0,0,0,0,0,0,0,0,0,0,0,0,0,0,0,0,0,0,0,0,0,0,0,0,0,0,0,0,0,-0.0141,-0.0142,0,-0.0217,-0.0218,-0.0219,-0.0273,-0.0274,-0.0274,-0.0274,-0.0395,-0.0398,-0.0401,0,0,0,0,0,0,0,0,0,0,0,0,0,-0.0098,-0.0098,-0.0141,-0.0142,-0.0143,-0.0217,-0.0218,-0.0219,-0.0273,-0.0274,-0.0274,-0.0274,-0.0394,-0.0397,-0.0401,0,0,0,0,0,0,0,0,0,0,0,0,0,-0.0141,-0.0098,-0.0141,-0.0177,-0.0181,-0.0217,-0.0218,-0.022,-0.0273,-0.0274,-0.0274,-0.0274,-0.0393,-0.0397,-0.0401,-0.0421,0,0,-0.0415,-0.0417,0,0,0,0,0,0,0,0,-0.0139,-0.0143,-0.0171,-0.0175,-0.0179,-0.0234,-0.0247,-0.0288,-0.0273,-0.024,-0.0274,-0.0275,-0.0344,-0.0352,-0.0368,-0.0426,-0.0432,-0.0415,-0.0418,-0.042,-0.0421,0,0,0,0,0,0,0,-0.0135,-0.014,-0.0173,-0.0172,-0.0177,-0.0208,-0.0215,-0.0255,-0.0291,-0.0243,-0.0247,-0.0252,-0.0347,-0.0363,-0.0371,-0.0433,-0.0415,-0.0419,-0.0422,-0.0424,-0.051,-0.051,0,0,0,0,0,0,-0.0119,-0.0137,-0.0171,-0.0175,-0.0157,-0.0208,-0.0216,-0.0218,-0.029,-0.03,-0.0252,-0.0254,-0.0356,-0.0366,-0.0376,-0.0395,-0.042,-0.0424,-0.0427,-0.051,-0.051,-0.0509,0,0,0,0,0,0,-0.0118,-0.0121,-0.0168,-0.0157,-0.0165,-0.0208,-0.0211,-0.0219,-0.0234,-0.0295,-0.0307,-0.0257,-0.0356,-0.0369,-0.0403,-0.04,-0.0426,-0.043,-0.0511,-0.051,-0.051,-0.0439,0,0,0,0,0,0,-0.0116,-0.012,-0.0117,-0.0155,-0.0164,-0.0181,-0.021,-0.022,-0.0236,-0.024,-0.0304,-0.0316,-0.0358,-0.0396,-0.0407,-0.0407,-0.0434,-0.0511,-0.051,-0.051,-0.0442,-0.0436,-0.0431,0,0,0,0,0,-0.0114,-0.0101,-0.0116,-0.012,-0.0158,-0.0181,-0.0188,-0.0223,-0.0235,-0.0238,-0.0278,-0.0314,-0.04,-0.0399,-0.0413,-0.0414,-0.0512,-0.0511,-0.051,-0.0444,-0.0437,-0.0431,0,0,0,0,0,0,-0.0077,-0.0106,-0.0123,-0.0119,-0.0146,-0.0189,-0.0191,-0.0216,-0.0249,-0.0251,-0.031,-0.0325,-0.0354,-0.0391,-0.0388,-0.0435,-0.0461,-0.0463,-0.0407,-0.0401,-0.0396,-0.0376,-0.0437,0,0,0,0,0,-0.0067,-0.0067,-0.0103,-0.01,-0.0108,-0.0149,-0.0162,-0.0184,-0.0218,-0.0234,-0.0277,-0.0322,-0.0361,-0.0385,-0.0424,-0.045,-0.0476,-0.0459,-0.0454,-0.0449,-0.0442,-0.0484,-0.0482,-0.0507,-0.0507,-0.0507,0,0,-0.0052,-0.0067,-0.0068,-0.0092,-0.0114,-0.0118,-0.0158,-0.0169,-0.0174,-0.0242,-0.0258,-0.0304,-0.0363,-0.0391,-0.0407,-0.0422,-0.0451,-0.0448,-0.0444,-0.0439,-0.0483,-0.048,-0.0478,-0.0506,-0.0506,-0.0506,0,0,-0.0015,-0.0033,-0.0021,-0.0039,-0.0064,-0.0089,-0.0088,-0.0127,-0.0146,-0.0169,-0.0217,-0.0256,-0.0316,-0.0357,-0.0386,-0.0375,-0.042,-0.039,-0.0352,-0.0392,-0.0391,-0.0389,-0.0396,-0.0396,-0.039,-0.0389,-0.0389,0,0.0005,0.0015,-0.0021,-0.0014,-0.0018,-0.007,-0.0055,-0.0084,-0.0128,-0.0138,-0.0163,-0.0246,-0.0299,-0.0335,-0.0336,-0.0363,-0.0383,-0.0371,-0.0385,-0.0384,-0.0384,-0.0392,-0.0393,-0.0386,-0.0386,-0.0387,-0.0387,0,0.0047,0.0053,0.0062,0.0053,0.0043,0.0047,0.0009,-0.0005,-0.0034,-0.0067,-0.0105,-0.0178,-0.0225,-0.0254,-0.0296,-0.0323,-0.0333,-0.0371,-0.0398,-0.0377,-0.0386,-0.0389,-0.0381,-0.0382,-0.0383,-0.0384,0,0,0.0101,0.0094,0.0097,0.011,0.0082,0.0083,0.0077,0.0058,0.0068,0.0001,0.0004,-0.0088,-0.013,-0.0165,-0.0226,-0.0272,-0.0291,-0.0318,-0.0322,-0.0317,-0.0355,-0.035,-0.0352,-0.0334,-0.0335,-0.0335,-0.0352,0,0.0147,0.0182,0.0162,0.0197,0.0215,0.0173,0.0178,0.0152,0.0121,0.0109,0.0018,-0.0007,-0.0095,-0.0112,-0.0174,-0.0256,-0.0297,-0.0281,-0.0381,-0.0383,-0.0377,-0.0356,-0.0343,-0.0357,-0.0354,-0.0355,-0.0355,0,0.0199,0.0216,0.0264,0.0282,0.0287,0.03,0.0311,0.0304,0.0261,0.0234,0.0177,0.0116,0.0042,-0.0035,-0.0169,-0.0154,-0.0246,-0.0319,-0.0322,-0.0346,-0.0384,-0.0383,-0.0361,-0.0537,-0.0359,-0.0359,-0.0359,0,0.0267,0.029,0.0337,0.034,0.0349,0.037,0.037,0.0348,0.0369,0.0317,0.0331,0.0219,0.0194,0.0046,-0.0104,-0.0137,-0.024,-0.0304,-0.0386,-0.0385,-0.0408,-0.0408,-0.0564,-0.0402,-0.0402,-0.0402,-0.0402,0,0.0329,0.0365,0.0376,0.0403,0.0466,0.0443,0.0506,0.0481,0.0487,0.0528,0.0404,0.0426,0.0211,0.0127,-0.0048,-0.0201,-0.0197,-0.0366,-0.0393,-0.038,-0.0378,-0.056,-0.0677,-0.0402,-0.0402,-0.0402,-0.0402,0,0.0397,0.0401,0.046,0.0488,0.0503,0.0548,0.0601,0.065,0.0628,0.0683,0.0677,0.0601,0.0488,0.0283,0.0076,-0.0093,-0.0368,-0.0326,-0.0275,-0.0296,-0.0554,-0.0667,-0.0859,-0.0933,-0.0421,-0.0421,-0.0422,0,0.0435,0.0474,0.053,0.0578,0.0597,0.0658,0.0713,0.0716,0.078,0.0801,0.085,0.0772,0.0739,0.0452,0.0141,-0.0139,-0.0344,-0.0321,-0.0402,-0.0555,-0.0702,-0.0791,-0.0846,-0.0394,-0.0394,-0.0393,-0.0393,0,0.0514,0.0535,0.0583,0.0677,0.0748,0.0825,0.0904,0.0981,0.1001,0.1057,0.1127,0.1108,0.0842,0.0587,0.0201,-0.0025,-0.0453,-0.0326,-0.0515,-0.0713,-0.0793,-0.0879,-0.0375,-0.0392,-0.0392,-0.0392,-0.0392,-0.0392,0.0576,0.0626,0.0695,0.0786,0.0866,0.0979,0.1064,0.1166,0.1282,0.1373,0.1351,0.1353,0.0967,0.0451,0.0138,-0.0421,-0.0452,-0.0606,-0.073,-0.0806,-0.0889,-0.0359,-0.0395,-0.0395,-0.0395,-0.0395,-0.0395,0,0.0653,0.0707,0.0799,0.0907,0.1006,0.1034,0.1185,0.1282,0.1434,0.1528,0.1585,0.1414,0.0927,0.0407,-0.0327,-0.0737,-0.0911,-0.0977,-0.1122,-0.116,-0.0708,-0.0719,-0.079,-0.0789,-0.0789,-0.0789,-0.0789,-0.0789,0.0698,0.0796,0.0838,0.1006,0.1086,0.1225,0.1316,0.1459,0.1564,0.1683,0.1704,0.1695,0.1315,-0.001,-0.0915,-0.1144,-0.1451,-0.1528,-0.1667,-0.1387,-0.1362,-0.1339,-0.1376,-0.1584,-0.1585,-0.2053,-0.2058,-0.2062]}],[{"header":{"parameterUnit":"m.s-1","parameterCategory":2,"la1":30.2991,"la2":30.254,"lo1":-89.0895,"lo2":-89.0444,"dy":0.0017,"dx":0.0017,"nx":28,"ny":28,"refTime":"2024-12-04T03:00:00:Z","depth":"2","parameterNumber":2,"parameterNumberName":"U-component_of_CURRENTS"},"data":[0,0,0,0,0,0,0,0,0,0,0,0,0,0,0,0,0,0,0,0,0,0,0,0,0,0,0,0,0,0,0,0,0,0,0,0,0,0,0,0,0,0,0,0,0,0,0,0,0,0,0,0,0,0,0,0,0,0,0.2689,0.269,0,0.2743,0.2744,0.2745,0.2766,0.2766,0.2766,0.2765,0.2799,0.28,0.2801,0,0,0,0,0,0,0,0,0,0,0,0,0,0.261,0.2612,0.2689,0.269,0.269,0.2743,0.2744,0.2745,0.2766,0.2766,0.2765,0.2765,0.2798,0.28,0.2801,0,0,0,0,0,0,0,0,0,0,0,0,0,0.2652,0.2612,0.2689,0.2707,0.271,0.2743,0.2744,0.2745,0.2766,0.2766,0.2765,0.2765,0.2798,0.2799,0.2801,0.2814,0,0,0.2806,0.2806,0,0,0,0,0,0,0,0,0.265,0.2655,0.2704,0.2706,0.2709,0.2748,0.2729,0.2767,0.2766,0.2744,0.2765,0.2765,0.278,0.2783,0.2794,0.2816,0.2817,0.2806,0.2807,0.2807,0.2808,0,0,0,0,0,0,0,0.2647,0.2653,0.271,0.2705,0.2708,0.2715,0.2721,0.2736,0.2762,0.2746,0.2748,0.2754,0.2781,0.2792,0.2795,0.2818,0.2806,0.2807,0.2808,0.2809,0.2904,0.2906,0,0,0,0,0,0,0.2641,0.265,0.2709,0.2712,0.2678,0.2717,0.2723,0.2735,0.2762,0.2767,0.2754,0.2755,0.279,0.2793,0.2796,0.2854,0.2807,0.2809,0.281,0.2902,0.2904,0.2906,0,0,0,0,0,0,0.2639,0.2646,0.2706,0.2682,0.269,0.2718,0.2732,0.2736,0.2757,0.2769,0.2773,0.2771,0.279,0.2794,0.2818,0.2853,0.2809,0.2811,0.2901,0.2903,0.2905,0.2943,0,0,0,0,0,0,0.2637,0.2645,0.2651,0.2682,0.2692,0.2731,0.2732,0.2738,0.276,0.2762,0.2784,0.2786,0.279,0.2815,0.2819,0.2855,0.2812,0.2898,0.2902,0.2905,0.294,0.2947,0.2953,0,0,0,0,0,0.2634,0.2643,0.2651,0.2658,0.27,0.2732,0.2738,0.2756,0.2761,0.2773,0.2788,0.2786,0.2838,0.2817,0.2821,0.2858,0.2897,0.2901,0.2904,0.2937,0.2945,0.2952,0,0,0,0,0,0,0.2608,0.2647,0.2656,0.2676,0.2704,0.2736,0.2753,0.2763,0.2786,0.2789,0.2798,0.2802,0.2844,0.2843,0.282,0.2897,0.2871,0.2876,0.2895,0.2903,0.2909,0.2927,0.2813,0,0,0,0,0,0.2606,0.2631,0.2661,0.2681,0.2697,0.2727,0.2743,0.2755,0.2779,0.2789,0.2808,0.2831,0.2862,0.2873,0.2898,0.2928,0.2941,0.2959,0.2965,0.2971,0.2989,0.3036,0.3048,0.2918,0.2918,0.2918,0,0,0.2601,0.2628,0.2641,0.2679,0.2707,0.2737,0.2737,0.2767,0.2796,0.2789,0.2837,0.2855,0.2877,0.292,0.2939,0.2921,0.3012,0.2975,0.2979,0.2996,0.3041,0.3054,0.3065,0.2921,0.292,0.292,0,0,0.2607,0.2633,0.2654,0.2685,0.2725,0.2746,0.2757,0.2795,0.2817,0.2856,0.2869,0.2905,0.2944,0.2972,0.2989,0.3044,0.3048,0.3056,0.3097,0.3141,0.3152,0.3162,0.3182,0.3193,0.3053,0.3053,0.3053,0,0.2599,0.2633,0.2663,0.2697,0.2724,0.2754,0.278,0.2815,0.2855,0.2881,0.2877,0.2964,0.2975,0.3039,0.3063,0.306,0.3078,0.3062,0.3149,0.3159,0.3169,0.3187,0.3199,0.3056,0.3055,0.3055,0.3055,0,0.2623,0.2654,0.2676,0.2731,0.2759,0.2792,0.2837,0.2875,0.2904,0.2937,0.3007,0.3031,0.3081,0.3097,0.3099,0.3179,0.3167,0.3154,0.3127,0.3184,0.3199,0.3211,0.3059,0.3058,0.3057,0.3057,0,0,0.2589,0.2673,0.268,0.2716,0.278,0.2809,0.2867,0.2925,0.2975,0.3022,0.3087,0.3147,0.3164,0.3187,0.3198,0.324,0.3314,0.3231,0.3233,0.3246,0.3405,0.3361,0.3369,0.3319,0.3322,0.3324,0.3383,0,0.2598,0.2655,0.2696,0.2761,0.2795,0.2851,0.2906,0.2964,0.3018,0.3092,0.314,0.3213,0.3198,0.3234,0.3271,0.3316,0.3351,0.3299,0.3354,0.3355,0.3305,0.3384,0.3128,0.3158,0.3395,0.3397,0.3398,0,0.2598,0.2642,0.2691,0.2784,0.2805,0.2851,0.2945,0.2999,0.3103,0.3149,0.3221,0.327,0.3355,0.3331,0.3423,0.3393,0.3409,0.343,0.3432,0.3391,0.3335,0.3143,0.317,0.3418,0.3416,0.3415,0.3414,0,0.2549,0.2639,0.2678,0.2711,0.2814,0.2856,0.2916,0.3012,0.3071,0.32,0.3257,0.335,0.3407,0.346,0.3504,0.3478,0.3596,0.3554,0.3524,0.3519,0.3314,0.3287,0.3622,0.3622,0.3622,0.3622,0.3622,0,0.2536,0.2575,0.2667,0.2695,0.2751,0.2838,0.291,0.2988,0.3106,0.3171,0.3283,0.3349,0.3449,0.3521,0.3543,0.3577,0.3622,0.3559,0.3548,0.3318,0.3293,0.3527,0.3515,0.3624,0.3624,0.3623,0.3623,0,0.2474,0.2536,0.2589,0.2695,0.2726,0.2768,0.2892,0.2951,0.3077,0.3168,0.3222,0.3374,0.3473,0.3553,0.3645,0.3619,0.3666,0.3659,0.3378,0.3335,0.3543,0.3533,0.3635,0.3635,0.3634,0.3634,0.3633,0,0.2444,0.2466,0.2557,0.2581,0.2631,0.2708,0.2755,0.2904,0.2968,0.316,0.3195,0.3358,0.3428,0.356,0.3583,0.3631,0.3668,0.3396,0.3307,0.3574,0.3553,0.3543,0.3534,0.3035,0.3029,0.3025,0.3022,0,0.2389,0.2423,0.2463,0.2502,0.2554,0.2603,0.2692,0.2736,0.2903,0.2996,0.3116,0.3211,0.3363,0.3317,0.3407,0.339,0.3375,0.3311,0.3674,0.3083,0.3016,0.2993,0.3001,0.2983,0.2987,0.299,0.2992,0.2994,0.2333,0.2338,0.2387,0.2415,0.2463,0.2483,0.2487,0.259,0.2668,0.2775,0.2932,0.2984,0.3074,0.3094,0.3037,0.3004,0.3226,0.3073,0.3082,0.3097,0.3029,0.2966,0.291,0.2913,0.2916,0.2918,0.292,0,0.2253,0.2274,0.2299,0.2324,0.2323,0.2385,0.2428,0.2412,0.2441,0.2571,0.266,0.2526,0.2541,0.2622,0.2537,0.2578,0.2513,0.2456,0.2335,0.2378,0.2416,0.2307,0.1999,0.1996,0.1992,0.1989,0,0,0.2216,0.2201,0.2211,0.2174,0.2191,0.2149,0.214,0.2134,0.2187,0.2184,0.2205,0.2418,0.2554,0.2226,0.2222,0.2086,0.2197,0.2008,0.2759,0.266,0.2691,0.2802,0.2691,0,0,0,0,0]},{"header":{"parameterUnit":"m.s-1","parameterCategory":2,"la1":30.2991,"la2":30.254,"lo1":-89.0895,"lo2":-89.0444,"dy":0.0017,"dx":0.0017,"nx":28,"ny":28,"refTime":"2024-12-04T03:00:00:Z","depth":"2","parameterNumber":3,"parameterNumberName":"V-component_of_CURRENTS"},"data":[0,0,0,0,0,0,0,0,0,0,0,0,0,0,0,0,0,0,0,0,0,0,0,0,0,0,0,0,0,0,0,0,0,0,0,0,0,0,0,0,0,0,0,0,0,0,0,0,0,0,0,0,0,0,0,0,0,0,-0.0037,-0.0037,0,-0.0104,-0.0105,-0.0106,-0.0155,-0.0155,-0.0155,-0.0156,-0.0248,-0.025,-0.0253,0,0,0,0,0,0,0,0,0,0,0,0,0,-0.0008,-0.0009,-0.0037,-0.0037,-0.0038,-0.0104,-0.0105,-0.0106,-0.0155,-0.0155,-0.0155,-0.0156,-0.0248,-0.025,-0.0253,0,0,0,0,0,0,0,0,0,0,0,0,0,-0.0044,-0.0009,-0.0037,-0.0069,-0.0073,-0.0104,-0.0105,-0.0106,-0.0155,-0.0155,-0.0155,-0.0156,-0.0247,-0.025,-0.0253,-0.0265,0,0,-0.0263,-0.0265,0,0,0,0,0,0,0,0,-0.0042,-0.0045,-0.0064,-0.0067,-0.0071,-0.012,-0.0129,-0.016,-0.0155,-0.0125,-0.0156,-0.0156,-0.0207,-0.0213,-0.0226,-0.0269,-0.0273,-0.0263,-0.0265,-0.0267,-0.0268,0,0,0,0,0,0,0,-0.0039,-0.0043,-0.0065,-0.0065,-0.0069,-0.0101,-0.0106,-0.0135,-0.0164,-0.0128,-0.0131,-0.0136,-0.0209,-0.0223,-0.0229,-0.0274,-0.0263,-0.0266,-0.0268,-0.027,-0.0337,-0.0337,0,0,0,0,0,0,-0.0025,-0.004,-0.0063,-0.0067,-0.0056,-0.01,-0.0106,-0.0105,-0.0163,-0.0172,-0.0136,-0.0138,-0.0217,-0.0225,-0.0232,-0.024,-0.0267,-0.027,-0.0272,-0.0337,-0.0337,-0.0337,0,0,0,0,0,0,-0.0024,-0.0026,-0.006,-0.0054,-0.0061,-0.01,-0.0099,-0.0106,-0.012,-0.0169,-0.0179,-0.0141,-0.0218,-0.0228,-0.0251,-0.0244,-0.0271,-0.0274,-0.0337,-0.0337,-0.0337,-0.0261,0,0,0,0,0,0,-0.0022,-0.0025,-0.0019,-0.0053,-0.006,-0.0067,-0.0098,-0.0107,-0.0121,-0.0125,-0.0176,-0.0186,-0.0219,-0.0245,-0.0254,-0.0249,-0.0277,-0.0338,-0.0337,-0.0337,-0.0264,-0.0258,-0.0253,0,0,0,0,0,-0.0021,-0.0006,-0.0019,-0.0022,-0.0051,-0.0067,-0.0073,-0.0104,-0.0121,-0.012,-0.0154,-0.0184,-0.025,-0.0248,-0.0258,-0.0254,-0.0338,-0.0337,-0.0337,-0.0266,-0.0259,-0.0253,0,0,0,0,0,0,0.0011,-0.001,-0.0025,-0.0017,-0.0037,-0.0074,-0.0077,-0.0098,-0.0125,-0.013,-0.0179,-0.019,-0.021,-0.0242,-0.0238,-0.0273,-0.03,-0.0302,-0.0243,-0.0237,-0.0232,-0.0216,-0.028,0,0,0,0,0,0.0021,0.0025,-0.0002,0.0004,-0.0004,-0.004,-0.0051,-0.007,-0.0098,-0.0111,-0.0147,-0.0186,-0.0216,-0.0233,-0.0266,-0.0281,-0.0312,-0.0287,-0.0282,-0.0277,-0.0272,-0.0314,-0.0312,-0.0335,-0.0335,-0.0335,0,0,0.0034,0.0023,0.0025,0.001,-0.001,-0.0008,-0.0048,-0.0056,-0.0056,-0.0116,-0.0128,-0.0169,-0.0217,-0.0235,-0.0247,-0.0259,-0.0284,-0.0277,-0.0272,-0.027,-0.0314,-0.0311,-0.0309,-0.0335,-0.0335,-0.0335,0,0,0.0068,0.0054,0.007,0.0058,0.0038,0.0017,0.0019,-0.0014,-0.003,-0.0047,-0.009,-0.0122,-0.017,-0.0201,-0.0224,-0.021,-0.0256,-0.0224,-0.0184,-0.0225,-0.0223,-0.0222,-0.0244,-0.0245,-0.0221,-0.022,-0.022,0,0.0084,0.0101,0.0072,0.0083,0.0082,0.0035,0.0054,0.0031,-0.0005,-0.0012,-0.004,-0.011,-0.0154,-0.0174,-0.0174,-0.0198,-0.0223,-0.0201,-0.0217,-0.0217,-0.0217,-0.024,-0.0242,-0.0217,-0.0217,-0.0218,-0.0218,0,0.0129,0.014,0.0149,0.0149,0.0145,0.0152,0.0123,0.0112,0.0082,0.0056,0.0026,-0.0038,-0.0078,-0.0101,-0.0137,-0.0156,-0.0174,-0.0205,-0.0228,-0.021,-0.0235,-0.0239,-0.0211,-0.0213,-0.0214,-0.0215,0,0,0.0172,0.018,0.0182,0.02,0.0182,0.0189,0.0189,0.018,0.0187,0.0131,0.0132,0.0059,0.0018,-0.0011,-0.0062,-0.0104,-0.0131,-0.0151,-0.0155,-0.0163,-0.0207,-0.022,-0.0227,-0.0165,-0.0166,-0.0167,-0.0219,0,0.0215,0.0258,0.0248,0.029,0.0313,0.0279,0.0288,0.0271,0.0242,0.0228,0.0152,0.0127,0.0056,0.0038,-0.0016,-0.01,-0.014,-0.0113,-0.0232,-0.0235,-0.0242,-0.0232,-0.0207,-0.0252,-0.0223,-0.0224,-0.0224,0,0.0265,0.0289,0.0339,0.0371,0.0378,0.0391,0.0403,0.0404,0.0367,0.0341,0.0294,0.0237,0.0173,0.0104,-0.0027,-0.0005,-0.0099,-0.0172,-0.0176,-0.0219,-0.0257,-0.0271,-0.0261,-0.0232,-0.0231,-0.023,-0.023,0,0.0319,0.0358,0.0403,0.0411,0.0431,0.0448,0.0453,0.0437,0.0458,0.0411,0.0417,0.0323,0.0288,0.0156,0.0004,-0.0012,-0.0142,-0.0182,-0.028,-0.0281,-0.03,-0.0302,-0.0279,-0.0279,-0.0279,-0.0279,-0.0279,0,0.0373,0.0411,0.0431,0.0456,0.0516,0.0506,0.0558,0.0544,0.0546,0.0582,0.0479,0.0487,0.0296,0.0202,0.0044,-0.012,-0.0111,-0.0268,-0.0298,-0.0271,-0.027,-0.0289,-0.0289,-0.0281,-0.028,-0.028,-0.028,0,0.0424,0.0434,0.0493,0.0527,0.0543,0.0583,0.0637,0.0676,0.0659,0.0702,0.0696,0.0617,0.0493,0.0304,0.0098,-0.005,-0.0219,-0.0284,-0.0229,-0.0252,-0.034,-0.0336,-0.0391,-0.0392,-0.0393,-0.0393,-0.0394,0,0.0453,0.0487,0.0547,0.059,0.0607,0.0664,0.0711,0.0724,0.0777,0.0789,0.0823,0.0728,0.0677,0.038,0.0102,-0.016,-0.0208,-0.0319,-0.0356,-0.0329,-0.0353,-0.0347,-0.0342,-0.0345,-0.0345,-0.0345,-0.0345,0,0.0511,0.0526,0.0574,0.066,0.072,0.0796,0.0864,0.0928,0.0951,0.0992,0.1027,0.099,0.072,0.0468,0.0105,-0.0085,-0.0277,-0.0329,-0.0318,-0.0319,-0.029,-0.0312,-0.0307,-0.0346,-0.0346,-0.0346,-0.0346,-0.0346,0.055,0.0593,0.0654,0.0736,0.0812,0.091,0.0982,0.1067,0.1161,0.1224,0.1186,0.1135,0.0846,0.0394,0.0072,-0.0276,-0.0266,-0.0395,-0.0393,-0.0391,-0.0375,-0.0349,-0.0412,-0.0412,-0.0413,-0.0413,-0.0413,0,0.0598,0.0647,0.0728,0.0826,0.0915,0.095,0.1076,0.115,0.1267,0.1325,0.1352,0.1079,0.0797,0.0455,-0.0046,-0.0346,-0.0382,-0.0452,-0.042,-0.0417,-0.0414,-0.0399,-0.0443,-0.0444,-0.0445,-0.0446,0,0,0.0625,0.0703,0.0741,0.0889,0.0967,0.1089,0.1164,0.1273,0.1343,0.1396,0.1377,0.1324,0.0914,0.0553,0.0144,-0.0145,-0.0221,-0.0217,-0.0161,-0.0072,-0.0066,-0.035,-0.0319,0,0,0,0,0]}],[{"header":{"parameterUnit":"m.s-1","parameterCategory":2,"la1":30.2991,"la2":30.254,"lo1":-89.0895,"lo2":-89.0444,"dy":0.0017,"dx":0.0017,"nx":28,"ny":28,"refTime":"2024-12-04T03:00:00:Z","depth":"4","parameterNumber":2,"parameterNumberName":"U-component_of_CURRENTS"},"data":[0,0,0,0,0,0,0,0,0,0,0,0,0,0,0,0,0,0,0,0,0,0,0,0,0,0,0,0,0,0,0,0,0,0,0,0,0,0,0,0,0,0,0,0,0,0,0,0,0,0,0,0,0,0,0,0,0,0,0.169,0.1691,0,0.1756,0.1756,0.1757,0.1813,0.1814,0.1815,0.1816,0.1883,0.1884,0.1884,0,0,0,0,0,0,0,0,0,0,0,0,0,0.16,0.1601,0.169,0.1691,0.1692,0.1756,0.1756,0.1757,0.1813,0.1814,0.1815,0.1816,0.1882,0.1883,0.1885,0,0,0,0,0,0,0,0,0,0,0,0,0,0.1646,0.1601,0.169,0.173,0.1735,0.1755,0.1756,0.1757,0.1813,0.1814,0.1815,0.1817,0.1882,0.1883,0.1885,0.1865,0,0,0.1889,0.1889,0,0,0,0,0,0,0,0,0.1644,0.1649,0.1723,0.1727,0.1733,0.1781,0.1749,0.1794,0.1812,0.1779,0.1816,0.1817,0.185,0.1854,0.1858,0.1868,0.1871,0.1889,0.189,0.189,0.1891,0,0,0,0,0,0,0,0.164,0.1647,0.1712,0.1724,0.173,0.1741,0.1749,0.1758,0.1803,0.1782,0.1788,0.18,0.1852,0.1857,0.186,0.1872,0.1889,0.189,0.1891,0.1891,0.1993,0.1995,0,0,0,0,0,0,0.1638,0.1644,0.171,0.1715,0.1695,0.1742,0.1751,0.1761,0.1803,0.1812,0.1799,0.1802,0.1854,0.1859,0.1863,0.1945,0.189,0.1892,0.1892,0.1992,0.1994,0.1996,0,0,0,0,0,0,0.1636,0.1644,0.1708,0.1683,0.1693,0.1742,0.1753,0.1762,0.1806,0.1816,0.1825,0.1839,0.1855,0.1861,0.1909,0.1944,0.1892,0.1893,0.1989,0.1992,0.1995,0.2043,0,0,0,0,0,0,0.1633,0.1642,0.1664,0.1683,0.1694,0.1743,0.1753,0.1762,0.181,0.1817,0.1853,0.1858,0.1857,0.1908,0.1911,0.1945,0.1894,0.1987,0.1991,0.1994,0.2039,0.2048,0.2054,0,0,0,0,0,0.163,0.1648,0.1665,0.1674,0.1718,0.1745,0.1752,0.1788,0.1811,0.1833,0.1866,0.1859,0.1933,0.191,0.1913,0.1949,0.1985,0.199,0.1994,0.2036,0.2046,0.2054,0,0,0,0,0,0,0.1621,0.1657,0.1675,0.1705,0.1736,0.1756,0.1787,0.1808,0.1849,0.187,0.1877,0.1885,0.1944,0.194,0.1915,0.1991,0.196,0.1965,0.1991,0.2001,0.2008,0.201,0.1896,0,0,0,0,0,0.1629,0.1655,0.1686,0.1714,0.1734,0.1767,0.179,0.1816,0.1848,0.187,0.1896,0.1927,0.1955,0.1975,0.1998,0.2031,0.204,0.206,0.2068,0.2074,0.208,0.2121,0.2133,0.201,0.201,0.201,0,0,0.1634,0.1658,0.1675,0.1715,0.1745,0.1773,0.1785,0.1832,0.1865,0.1868,0.1933,0.1957,0.1973,0.2019,0.2044,0.2025,0.2117,0.208,0.2085,0.2087,0.2127,0.2139,0.2149,0.2013,0.2012,0.2012,0,0,0.1644,0.1682,0.1705,0.1733,0.1786,0.1805,0.1827,0.1871,0.1907,0.196,0.1978,0.2026,0.2066,0.2084,0.2096,0.2158,0.2159,0.2174,0.2209,0.2249,0.2259,0.2268,0.2305,0.2317,0.2173,0.2173,0.2174,0,0.1652,0.1683,0.1716,0.1745,0.1776,0.1823,0.1854,0.1889,0.1947,0.1979,0.1994,0.208,0.2095,0.2145,0.2173,0.2175,0.2199,0.2169,0.2258,0.2267,0.2275,0.2311,0.2323,0.2176,0.2176,0.2176,0.2175,0,0.1669,0.1709,0.1728,0.1779,0.1813,0.1853,0.1902,0.1954,0.2005,0.2037,0.2119,0.2148,0.2198,0.2214,0.2213,0.2283,0.2283,0.2264,0.223,0.229,0.2324,0.2336,0.218,0.2179,0.2179,0.2178,0,0,0.1645,0.1725,0.1735,0.1768,0.184,0.1865,0.1933,0.1996,0.2051,0.2116,0.2182,0.2239,0.227,0.2286,0.23,0.2334,0.2416,0.2331,0.2332,0.236,0.2516,0.2371,0.237,0.2418,0.2421,0.2422,0.2519,0,0.1654,0.1709,0.1748,0.1809,0.1843,0.1909,0.1964,0.2032,0.2097,0.2173,0.2226,0.2297,0.2292,0.2335,0.237,0.2411,0.245,0.2392,0.2461,0.2463,0.2319,0.2379,0.2429,0.2528,0.2531,0.2533,0.2534,0,0.1649,0.1692,0.1751,0.1834,0.1857,0.1904,0.2006,0.2063,0.217,0.2226,0.2304,0.2351,0.2432,0.2416,0.2513,0.2482,0.251,0.2529,0.2533,0.2385,0.2338,0.2455,0.2556,0.2554,0.2552,0.2551,0.255,0,0.1604,0.1689,0.1739,0.1768,0.1868,0.1919,0.1983,0.2087,0.215,0.2273,0.2339,0.2425,0.2499,0.2543,0.2597,0.2571,0.2693,0.2655,0.2549,0.2539,0.2619,0.2608,0.2721,0.2721,0.2721,0.2721,0.272,0,0.1578,0.1621,0.1731,0.1757,0.1829,0.1909,0.1995,0.2075,0.2196,0.2267,0.237,0.2435,0.254,0.2616,0.2634,0.2631,0.2728,0.2566,0.2555,0.2639,0.2629,0.2628,0.2616,0.2724,0.2723,0.2723,0.2722,0,0.151,0.1584,0.1647,0.1766,0.1808,0.1862,0.1999,0.2057,0.2189,0.2289,0.234,0.2486,0.2577,0.2658,0.2745,0.2674,0.2687,0.2663,0.277,0.2762,0.2497,0.2487,0.254,0.2536,0.2532,0.2529,0.2527,0,0.1476,0.1505,0.1637,0.168,0.1739,0.1834,0.1896,0.2038,0.2098,0.229,0.2325,0.2481,0.2554,0.2564,0.2653,0.2683,0.2652,0.264,0.2538,0.2495,0.248,0.2475,0.247,0.2521,0.252,0.2519,0.2518,0,0.1409,0.1472,0.1526,0.1616,0.169,0.1755,0.1858,0.189,0.2047,0.219,0.2257,0.2311,0.2414,0.247,0.2526,0.2534,0.2629,0.26,0.2607,0.2511,0.2472,0.246,0.2459,0.2505,0.2507,0.2508,0.2509,0,0.1362,0.1383,0.1468,0.1531,0.1621,0.1654,0.1715,0.1786,0.1864,0.207,0.2087,0.2245,0.2386,0.2396,0.244,0.2447,0.24,0.2305,0.2325,0.2341,0.2229,0.2147,0.2079,0,0,0,0,0,0.1305,0.132,0.1375,0.1435,0.152,0.1569,0.1681,0.1744,0.1894,0.1891,0.1983,0.2063,0.2133,0.2217,0.2186,0.2358,0.2413,0.231,0.2315,0.2435,0.2449,0.2335,0,0,0,0,0,0,0.1268,0.1317,0.1337,0.1344,0.1368,0.144,0.1503,0.1601,0.1605,0.1766,0.1817,0.1942,0.2045,0.2135,0.2148,0.2174,0.2135,0.2413,0.2408,0.2426,0.244,0.2451,0.2339,0,0,0,0,0]},{"header":{"parameterUnit":"m.s-1","parameterCategory":2,"la1":30.2991,"la2":30.254,"lo1":-89.0895,"lo2":-89.0444,"dy":0.0017,"dx":0.0017,"nx":28,"ny":28,"refTime":"2024-12-04T03:00:00:Z","depth":"4","parameterNumber":3,"parameterNumberName":"V-component_of_CURRENTS"},"data":[0,0,0,0,0,0,0,0,0,0,0,0,0,0,0,0,0,0,0,0,0,0,0,0,0,0,0,0,0,0,0,0,0,0,0,0,0,0,0,0,0,0,0,0,0,0,0,0,0,0,0,0,0,0,0,0,0,0,0.005,0.005,0,0.0007,0.0007,0.0006,-0.0023,-0.0024,-0.0024,-0.0024,-0.0077,-0.0078,-0.0079,0,0,0,0,0,0,0,0,0,0,0,0,0,0.0063,0.0063,0.005,0.0049,0.0049,0.0007,0.0007,0.0006,-0.0023,-0.0024,-0.0024,-0.0024,-0.0076,-0.0078,-0.0079,0,0,0,0,0,0,0,0,0,0,0,0,0,0.0042,0.0063,0.005,0.0029,0.0027,0.0008,0.0007,0.0006,-0.0023,-0.0024,-0.0024,-0.0024,-0.0076,-0.0078,-0.008,-0.0084,0,0,-0.0085,-0.0086,0,0,0,0,0,0,0,0,0.0044,0.0042,0.0033,0.0031,0.0028,-0.0003,-0.0008,-0.0025,-0.0023,-0.0004,-0.0024,-0.0024,-0.0053,-0.0056,-0.0064,-0.0087,-0.0089,-0.0085,-0.0086,-0.0087,-0.0088,0,0,0,0,0,0,0,0.0045,0.0043,0.0033,0.0032,0.0029,0.0007,0.0004,-0.0011,-0.0027,-0.0006,-0.0008,-0.0013,-0.0054,-0.0062,-0.0065,-0.009,-0.0085,-0.0087,-0.0088,-0.0089,-0.0123,-0.0123,0,0,0,0,0,0,0.0053,0.0045,0.0034,0.0032,0.0035,0.0008,0.0004,0.0007,-0.0026,-0.0032,-0.0012,-0.0014,-0.0059,-0.0063,-0.0067,-0.0063,-0.0087,-0.0089,-0.009,-0.0123,-0.0123,-0.0123,0,0,0,0,0,0,0.0054,0.0053,0.0036,0.0037,0.0033,0.0008,0.0011,0.0007,-0.0,-0.0031,-0.0036,-0.0014,-0.0059,-0.0065,-0.0076,-0.0066,-0.009,-0.0091,-0.0124,-0.0123,-0.0123,-0.0062,0,0,0,0,0,0,0.0055,0.0054,0.0058,0.0038,0.0034,0.0033,0.0011,0.0006,-0.0003,-0.0005,-0.0034,-0.004,-0.006,-0.0074,-0.0078,-0.0069,-0.0093,-0.0124,-0.0123,-0.0123,-0.0064,-0.006,-0.0056,0,0,0,0,0,0.0055,0.0068,0.0059,0.0057,0.0041,0.0034,0.003,0.001,-0.0002,0.0001,-0.002,-0.0039,-0.0075,-0.0075,-0.008,-0.0071,-0.0124,-0.0124,-0.0123,-0.0066,-0.0061,-0.0056,0,0,0,0,0,0,0.0077,0.0065,0.0055,0.0064,0.0052,0.0029,0.0029,0.0014,-0.0001,-0.0004,-0.0034,-0.0041,-0.0049,-0.0069,-0.0068,-0.0082,-0.0104,-0.0104,-0.0058,-0.0054,-0.0049,-0.0034,-0.0094,0,0,0,0,0,0.0084,0.009,0.0073,0.0079,0.0075,0.0052,0.0046,0.0033,0.0016,0.0009,-0.0012,-0.0035,-0.0052,-0.0059,-0.0079,-0.0083,-0.0113,-0.0083,-0.0079,-0.0075,-0.0067,-0.0104,-0.0102,-0.0122,-0.0122,-0.0122,0,0,0.0093,0.0088,0.0091,0.0084,0.0072,0.0078,0.0048,0.0044,0.0049,0.0006,0.0006,-0.0022,-0.0051,-0.0056,-0.0062,-0.0071,-0.0087,-0.0074,-0.0071,-0.0065,-0.0103,-0.0101,-0.01,-0.0122,-0.0122,-0.0122,0,0,0.012,0.0112,0.0126,0.0121,0.0109,0.0097,0.0099,0.0079,0.007,0.0064,0.0034,0.0015,-0.0011,-0.0027,-0.0039,-0.0024,-0.0065,-0.0034,0.0004,-0.0032,-0.003,-0.0029,-0.007,-0.0073,-0.0029,-0.0029,-0.0029,0,0.0131,0.0147,0.0129,0.0141,0.0144,0.0111,0.0129,0.0116,0.0095,0.0092,0.0072,0.0031,0.0005,0.0,0.0005,-0.0013,-0.0044,-0.001,-0.0025,-0.0025,-0.0025,-0.0067,-0.0071,-0.0026,-0.0026,-0.0027,-0.0027,0,0.0166,0.0179,0.0188,0.0195,0.0197,0.0205,0.0189,0.0185,0.0166,0.015,0.0134,0.0094,0.0071,0.0057,0.0036,0.0027,0.0002,-0.0017,-0.0034,-0.0019,-0.0064,-0.007,-0.0022,-0.0023,-0.0024,-0.0024,0,0,0.0193,0.021,0.0214,0.023,0.0227,0.0235,0.0243,0.0243,0.0251,0.0216,0.0219,0.0182,0.0151,0.0134,0.01,0.007,0.004,0.0033,0.0029,-0.0001,-0.0045,-0.0055,-0.0063,0.0018,0.0017,0.0017,-0.0078,0,0.0226,0.0265,0.0265,0.0305,0.0325,0.0307,0.0322,0.0316,0.0298,0.029,0.0241,0.0228,0.0183,0.0172,0.0135,0.0064,0.0029,0.0067,-0.0061,-0.0065,-0.007,-0.0068,0.0015,-0.0082,-0.0083,-0.0084,-0.0085,0,0.0261,0.0284,0.0329,0.0365,0.0372,0.0391,0.0409,0.0416,0.0394,0.0377,0.0347,0.0306,0.0262,0.0218,0.0106,0.0131,0.0052,-0.0009,-0.0015,-0.0047,-0.0085,-0.0102,-0.0096,-0.0095,-0.0094,-0.0093,-0.0093,0,0.0289,0.0332,0.0372,0.0383,0.0413,0.0433,0.0447,0.0442,0.0458,0.043,0.043,0.0364,0.0331,0.023,0.0104,0.0103,-0.003,-0.005,-0.0136,-0.0138,-0.0127,-0.0127,-0.013,-0.013,-0.013,-0.013,-0.0129,0,0.0323,0.0357,0.039,0.0413,0.0466,0.0472,0.0517,0.0515,0.0521,0.0542,0.0477,0.0469,0.0332,0.0242,0.0121,-0.0023,-0.0021,-0.0128,-0.016,-0.0101,-0.0097,-0.0132,-0.0131,-0.0133,-0.0132,-0.0132,-0.0131,0,0.0344,0.0364,0.0416,0.0461,0.0481,0.0516,0.0571,0.06,0.0595,0.0618,0.0614,0.0543,0.0424,0.0279,0.0107,0.0004,-0.0137,-0.0191,-0.0117,-0.0145,-0.0228,-0.0222,-0.0292,-0.0293,-0.0294,-0.0295,-0.0296,0,0.0356,0.0383,0.045,0.0486,0.0509,0.0564,0.0604,0.063,0.0662,0.0662,0.0674,0.0582,0.0512,0.0267,0.0103,-0.0129,-0.0163,-0.0244,-0.0233,-0.0218,-0.0243,-0.0236,-0.023,-0.0297,-0.0297,-0.0298,-0.0298,0,0.0377,0.0399,0.0441,0.0513,0.0568,0.0632,0.0691,0.0723,0.0748,0.0753,0.0725,0.0605,0.0468,0.0276,0.0094,-0.0072,-0.0194,-0.0255,-0.0254,-0.0244,-0.0225,-0.0247,-0.024,-0.0301,-0.0301,-0.03,-0.03,0,0.0389,0.0418,0.047,0.0535,0.0607,0.0673,0.0708,0.0748,0.0781,0.0785,0.0771,0.0628,0.0549,0.0304,0.0137,-0.0028,-0.0072,-0.0132,-0.0139,-0.0137,-0.0066,-0.0018,-0.0054,0,0,0,0,0,0.0394,0.0425,0.0487,0.0559,0.0633,0.0677,0.0754,0.0782,0.0813,0.0805,0.0794,0.067,0.0431,0.0329,0.0165,0.0101,-0.0115,-0.0101,-0.0191,-0.0319,-0.0315,-0.0258,0,0,0,0,0,0,0.0395,0.0449,0.0481,0.0566,0.0619,0.0703,0.0754,0.0781,0.0779,0.0787,0.067,0.0617,0.039,0.0529,0.0159,0.0109,0.0025,-0.0207,-0.0211,-0.0321,-0.0317,-0.0314,-0.0255,0,0,0,0,0]}]]